| time (UTC) | temp C | wind direction | speed KPH | gust KPH | rain 1hr cm | rain 24hr cm | rain mn cm | humidity % | barometer mb |
| 20260504234504 | 23 | 222 | 14.5 | 29.0 | 0.00 | 0.00 | 0.00 | 48 | 992.5 |
| 20260504233004 | 24 | 208 | 17.7 | 29.0 | 0.00 | 0.00 | 0.00 | 47 | 992.5 |
| 20260504230006 | 24 | 214 | 17.7 | 30.6 | 0.00 | 0.00 | 0.00 | 47 | 992.5 |
| 20260504224507 | 23 | 238 | 17.7 | 38.6 | 0.00 | 0.00 | 0.00 | 46 | 992.7 |
| 20260504221501 | 25 | 207 | 20.9 | 32.2 | 0.00 | 0.00 | 0.00 | 43 | 992.7 |
| 20260504220003 | 25 | 210 | 17.7 | 33.8 | 0.00 | 0.00 | 0.00 | 47 | 992.7 |
| 20260504214501 | 25 | 228 | 27.4 | 41.8 | 0.00 | 0.00 | 0.00 | 45 | 992.6 |
| 20260504213009 | 25 | 218 | 20.9 | 35.4 | 0.00 | 0.00 | 0.00 | 44 | 992.9 |
| 20260504210002 | 24 | 215 | 22.5 | 37.0 | 0.00 | 0.00 | 0.00 | 44 | 993.1 |
| 20260504193003 | 24 | 213 | 22.5 | 35.4 | 0.00 | 0.00 | 0.00 | 48 | 994.2 |
| 20260504180007 | 23 | 222 | 16.1 | 32.2 | 0.00 | 0.00 | 0.00 | 57 | 995.0 |
| 20260504173002 | 23 | 199 | 29.0 | 35.4 | 0.00 | 0.00 | 0.00 | 54 | 995.5 |
| 20260504050009 | 13 | 168 | 0.0 | 11.3 | 0.00 | 0.00 | 0.00 | 70 | 997.4 |
| 20260504044515 | 13 | 168 | 0.0 | 8.0 | 0.00 | 0.00 | 0.00 | 67 | 997.5 |
| 20260504043009 | 14 | 220 | 3.2 | 12.9 | 0.00 | 0.00 | 0.00 | 66 | 997.7 |
| 20260504041508 | 14 | 195 | 1.6 | 19.3 | 0.00 | 0.00 | 0.00 | 65 | 997.7 |
| 20260504040011 | 14 | 212 | 11.3 | 20.9 | 0.00 | 0.00 | 0.00 | 65 | 997.8 |
| 20260504034512 | 14 | 331 | 3.2 | 6.4 | 0.00 | 0.00 | 0.00 | 68 | 997.8 |
| 20260504033011 | 14 | 359 | 1.6 | 8.0 | 0.00 | 0.00 | 0.00 | 67 | 998.1 |
| 20260504030010 | 15 | 326 | 1.6 | 9.7 | 0.00 | 0.00 | 0.00 | 65 | 998.1 |
| 20260504024515 | 15 | 324 | 0.0 | 1.6 | 0.00 | 0.00 | 0.00 | 64 | 998.1 |
| 20260504023008 | 16 | 359 | 0.0 | 12.9 | 0.00 | 0.00 | 0.00 | 62 | 998.0 |
| 20260504021510 | 16 | 325 | 4.8 | 16.1 | 0.00 | 0.00 | 0.00 | 58 | 998.2 |
| 20260504020015 | 16 | 286 | 3.2 | 8.0 | 0.00 | 0.00 | 0.00 | 57 | 997.9 |
| 20260504014511 | 17 | 293 | 3.2 | 11.3 | 0.00 | 0.00 | 0.00 | 56 | 997.7 |
| 20260504013010 | 17 | 304 | 4.8 | 11.3 | 0.00 | 0.00 | 0.00 | 54 | 997.7 |
| 20260504010010 | 17 | 249 | 8.0 | 16.1 | 0.00 | 0.00 | 0.00 | 52 | 997.5 |
| 20260504001507 | 18 | 197 | 4.8 | 9.7 | 0.00 | 0.00 | 0.00 | 49 | 997.3 |
| 20260504000010 | 19 | 210 | 4.8 | 12.9 | 0.00 | 0.00 | 0.00 | 49 | 997.7 |